| time (UTC) | temp C | wind direction | speed KPH | gust KPH | rain 1hr cm | rain 24hr cm | rain mn cm | humidity % | barometer mb |
| 20260506113045 | 10 | 315 | 8.0 | 17.7 | 0.00 | 0.00 | 0.00 | 27 | 1012.2 |
| 20260506111543 | 11 | 116 | 6.4 | 14.5 | 0.00 | 0.00 | 0.00 | 28 | 1012.3 |
| 20260506110045 | 10 | 186 | 6.4 | 11.3 | 0.00 | 0.00 | 0.00 | 29 | 1012.3 |
| 20260506104547 | 10 | 259 | 3.2 | 14.5 | 0.00 | 0.00 | 0.00 | 31 | 1012.3 |
| 20260506103041 | 10 | 252 | 11.3 | 17.7 | 0.00 | 0.00 | 0.00 | 28 | 1012.4 |
| 20260506101540 | 10 | 94 | 6.4 | 20.9 | 0.00 | 0.00 | 0.00 | 26 | 1012.5 |
| 20260506100037 | 10 | 173 | 8.0 | 17.7 | 0.00 | 0.00 | 0.00 | 26 | 1012.8 |
| 20260506094535 | 10 | 260 | 6.4 | 16.1 | 0.00 | 0.00 | 0.00 | 30 | 1012.8 |
| 20260506093038 | 10 | 328 | 3.2 | 17.7 | 0.00 | 0.00 | 0.00 | 31 | 1012.7 |
| 20260506091532 | 10 | 259 | 4.8 | 16.1 | 0.00 | 0.00 | 0.00 | 33 | 1012.7 |
| 20260506090029 | 9 | 225 | 4.8 | 14.5 | 0.00 | 0.00 | 0.00 | 33 | 1012.7 |
| 20260506084534 | 8 | 273 | 3.2 | 14.5 | 0.00 | 0.00 | 0.00 | 32 | 1012.7 |
| 20260506083025 | 8 | 334 | 6.4 | 12.9 | 0.00 | 0.00 | 0.00 | 34 | 1012.7 |
| 20260506081522 | 8 | 341 | 4.8 | 12.9 | 0.00 | 0.00 | 0.00 | 35 | 1012.6 |
| 20260506073016 | 7 | 324 | 1.6 | 12.9 | 0.00 | 0.00 | 0.00 | 47 | 1012.6 |
| 20260506071515 | 7 | 310 | 4.8 | 12.9 | 0.00 | 0.00 | 0.00 | 45 | 1012.6 |
| 20260506061502 | 5 | 355 | 3.2 | 8.0 | 0.00 | 0.00 | 0.00 | 61 | 1012.5 |
| 20260506044548 | 1 | 138 | 0.0 | 0.0 | 0.00 | 0.00 | 0.00 | 92 | 1012.1 |
| 20260506043040 | 0 | 138 | 0.0 | 0.0 | 0.00 | 0.00 | 0.00 | 92 | 1011.9 |
| 20260506041548 | -1 | 138 | 0.0 | 0.0 | 0.00 | 0.00 | 0.00 | 93 | 1011.8 |
| 20260506040039 | -1 | 138 | 0.0 | 0.0 | 0.00 | 0.00 | 0.00 | 92 | 1011.7 |
| 20260506034534 | -2 | 138 | 0.0 | 0.0 | 0.00 | 0.00 | 0.00 | 93 | 1011.5 |
| 20260506033031 | -2 | 138 | 0.0 | 0.0 | 0.00 | 0.00 | 0.00 | 92 | 1011.4 |
| 20260506031531 | -3 | 138 | 0.0 | 0.0 | 0.00 | 0.00 | 0.00 | 92 | 1011.2 |
| 20260506030028 | -2 | 138 | 0.0 | 0.0 | 0.00 | 0.00 | 0.00 | 92 | 1011.2 |
| 20260506024527 | -2 | 138 | 0.0 | 0.0 | 0.00 | 0.00 | 0.00 | 92 | 1011.0 |
| 20260506023022 | -2 | 138 | 0.0 | 0.0 | 0.00 | 0.00 | 0.00 | 92 | 1011.0 |
| 20260506021518 | -2 | 138 | 0.0 | 0.0 | 0.00 | 0.00 | 0.00 | 92 | 1010.9 |
| 20260506020016 | -2 | 138 | 0.0 | 0.0 | 0.00 | 0.00 | 0.00 | 92 | 1010.6 |
| 20260506014515 | -2 | 138 | 0.0 | 0.0 | 0.00 | 0.00 | 0.00 | 92 | 1010.6 |
| 20260506013014 | -1 | 138 | 0.0 | 0.0 | 0.00 | 0.00 | 0.00 | 92 | 1010.6 |
| 20260506011525 | -1 | 138 | 0.0 | 0.0 | 0.00 | 0.00 | 0.00 | 92 | 1010.5 |
| 20260506010005 | -1 | 138 | 0.0 | 0.0 | 0.00 | 0.00 | 0.00 | 92 | 1010.3 |
| 20260506004511 | -1 | 138 | 0.0 | 0.0 | 0.00 | 0.00 | 0.00 | 92 | 1010.2 |
| 20260506003002 | -1 | 138 | 0.0 | 0.0 | 0.00 | 0.00 | 0.00 | 92 | 1010.1 |
| 20260506001601 | -1 | 138 | 0.0 | 0.0 | 0.00 | 0.00 | 0.00 | 91 | 1010.0 |
| 20260506000100 | -1 | 138 | 0.0 | 0.0 | 0.00 | 0.00 | 0.00 | 91 | 1009.9 |
| 20260505234554 | 0 | 138 | 0.0 | 0.0 | 0.00 | 0.00 | 0.00 | 91 | 1009.8 |
| 20260505233051 | 0 | 138 | 0.0 | 0.0 | 0.00 | 0.00 | 0.00 | 91 | 1009.6 |
| 20260505231549 | 0 | 138 | 0.0 | 0.0 | 0.00 | 0.00 | 0.00 | 91 | 1009.6 |
| 20260505230046 | 0 | 138 | 0.0 | 3.2 | 0.00 | 0.00 | 0.00 | 90 | 1009.4 |
| 20260505224542 | 0 | 138 | 0.0 | 3.2 | 0.00 | 0.00 | 0.00 | 90 | 1009.5 |
| 20260505223039 | 1 | 138 | 0.0 | 0.0 | 0.00 | 0.00 | 0.00 | 90 | 1009.4 |
| 20260505221541 | 1 | 138 | 0.0 | 0.0 | 0.00 | 0.00 | 0.00 | 89 | 1009.2 |
| 20260505220051 | 1 | 138 | 0.0 | 0.0 | 0.00 | 0.00 | 0.00 | 88 | 1009.2 |
| 20260505214533 | 1 | 138 | 0.0 | 3.2 | 0.00 | 0.00 | 0.00 | 87 | 1009.2 |
| 20260505213031 | 2 | 138 | 0.0 | 0.0 | 0.00 | 0.00 | 0.00 | 86 | 1009.0 |
| 20260505211524 | 3 | 138 | 0.0 | 0.0 | 0.00 | 0.00 | 0.00 | 85 | 1008.9 |
| 20260505210020 | 3 | 161 | 1.6 | 8.0 | 0.00 | 0.00 | 0.00 | 84 | 1008.9 |
| 20260505204519 | 3 | 161 | 0.0 | 0.0 | 0.00 | 0.00 | 0.00 | 83 | 1008.7 |
| 20260505203016 | 4 | 161 | 0.0 | 0.0 | 0.00 | 0.00 | 0.00 | 82 | 1008.5 |
| 20260505201517 | 4 | 161 | 0.0 | 0.0 | 0.00 | 0.00 | 0.00 | 80 | 1008.3 |
| 20260505200010 | 5 | 113 | 0.0 | 0.0 | 0.00 | 0.00 | 0.00 | 77 | 1008.3 |
| 20260505194518 | 6 | 113 | 0.0 | 3.2 | 0.00 | 0.00 | 0.00 | 75 | 1008.1 |
| 20260505193009 | 6 | 83 | 1.6 | 3.2 | 0.00 | 0.00 | 0.00 | 74 | 1007.9 |
| 20260505191506 | 6 | 82 | 1.6 | 4.8 | 0.00 | 0.00 | 0.00 | 71 | 1007.8 |
| 20260505190005 | 6 | 83 | 1.6 | 4.8 | 0.00 | 0.00 | 0.00 | 70 | 1007.6 |
| 20260505184502 | 6 | 83 | 0.0 | 9.7 | 0.00 | 0.00 | 0.00 | 70 | 1007.5 |
| 20260505183108 | 7 | 83 | 4.8 | 8.0 | 0.00 | 0.00 | 0.00 | 68 | 1007.3 |
| 20260505181610 | 7 | 71 | 4.8 | 9.7 | 0.00 | 0.00 | 0.00 | 65 | 1007.1 |
| 20260505180056 | 7 | 50 | 6.4 | 9.7 | 0.00 | 0.00 | 0.00 | 59 | 1007.0 |
| 20260505174556 | 8 | 350 | 6.4 | 12.9 | 0.00 | 0.00 | 0.00 | 46 | 1006.9 |
| 20260505173053 | 8 | 32 | 9.7 | 19.3 | 0.00 | 0.00 | 0.00 | 44 | 1006.7 |
| 20260505171552 | 8 | 314 | 14.5 | 22.5 | 0.00 | 0.00 | 0.00 | 40 | 1006.6 |
| 20260505170050 | 8 | 243 | 12.9 | 20.9 | 0.00 | 0.00 | 0.00 | 40 | 1006.4 |
| 20260505164558 | 9 | 275 | 14.5 | 24.1 | 0.00 | 0.00 | 0.00 | 38 | 1006.3 |
| 20260505163048 | 9 | 307 | 9.7 | 17.7 | 0.00 | 0.00 | 0.00 | 41 | 1006.3 |
| 20260505161556 | 9 | 269 | 11.3 | 22.5 | 0.00 | 0.00 | 0.00 | 38 | 1006.3 |
| 20260505153050 | 9 | 259 | 11.3 | 22.5 | 0.00 | 0.00 | 0.00 | 38 | 1006.1 |
| 20260505151542 | 9 | 269 | 14.5 | 22.5 | 0.00 | 0.00 | 0.00 | 39 | 1006.1 |
| 20260505124535 | 10 | 268 | 19.3 | 33.8 | 0.00 | 0.00 | 0.00 | 37 | 1005.5 |
| 20260505123026 | 9 | 261 | 16.1 | 25.7 | 0.00 | 0.00 | 0.00 | 36 | 1005.5 |
| 20260505121523 | 10 | 263 | 17.7 | 29.0 | 0.00 | 0.00 | 0.00 | 34 | 1005.6 |
| 20260505120023 | 8 | 267 | 17.7 | 22.5 | 0.00 | 0.00 | 0.00 | 40 | 1005.4 |
| 20260505114517 | 9 | 265 | 22.5 | 32.2 | 0.00 | 0.00 | 0.00 | 39 | 1005.4 |